www.pogodaiklimat.ru

Погода и климат >> Архив погоды >> Австралия >> Новый Южный Уэльс >> Перпендикуляр Пойнт


ПОГОДА в Перпендикуляр Пойнт

  • Прогноз погоды в Перпендикуляр Пойнт
  • Монитор погоды в Перпендикуляр Пойнт

АРХИВ ПОГОДЫ в Перпендикуляр Пойнт

Время (UTC), дата Ветер
(напр.,м/с)
 
Видим.   Явления Облачность Т
(С)
Тd
(С)
f
(%)
Тe
(С)
Тes
(С)
Комфортность P
(гПа)
Po
(гПа)
Тmin
(С)
Tmax
(С)
R
(мм)
R24
(мм)
S
(см)
13 14.08 СЗ 4 н/о н/о +11.0 +6.0 71 +9 +9 1026.3 1016.1
14 14.08 СЗ 4 н/о н/о +10.8 +2.9 58 +9 +9 1026.2 1016.0 +17.0
16 14.08 СЗ 6 н/о н/о +10.0 +3.1 62 +7 +7 1025.3 1015.1
17 14.08 СЗ 5 н/о н/о +9.4 +2.9 64 +7 +7 1024.7 1014.5
19 14.08 СЗ 5 н/о н/о +9.6 +2.5 61 +7 +7 1024.2 1014.0
20 14.08 СЗ 4 н/о н/о +9.6 +2.7 62 +7 +7 1024.2 1014.0
22 14.08 СЗ 3 н/о н/о +10.7 +3.5 61 +9 +9 1024.8 1014.6
23 14.08 З 2 н/о н/о +12.1 +2.3 51 +11 +11 1025.0 1014.8
01 15.08 З 3 н/о н/о +14.2 +1.2 41 +14 +14 1024.3 1014.1
02 15.08 ЮЗ 4 н/о н/о +15.2 +0.2 36 +15 +15 1023.4 1013.3 +9.3
04 15.08 Ю 4 н/о н/о +16.0 +0.2 34 +16 +16 1021.5 1011.4
05 15.08 ЮВ 3 н/о н/о +16.1 +1.4 37 +16 +16 1021.2 1011.1
07 15.08 С 4 н/о н/о +14.0 +3.2 48 +13 +13 1021.1 1011.0
08 15.08 С 4 н/о н/о +13.6 +4.5 54 +12 +12 1021.7 1011.6
10 15.08 СЗ 6 н/о н/о +14.8 +1.7 41 +13 +13 1021.8 1011.7
11 15.08 СЗ 4 н/о н/о +14.2 +2.8 46 +13 +13 1021.8 1011.7
13 15.08 СЗ 5 н/о н/о +12.4 +3.6 55 +10 +10 1021.4 1011.3
14 15.08 СЗ 5 н/о н/о +11.5 +3.5 58 +9 +9 1021.3 1011.2 +16.7
16 15.08 СЗ 5 н/о н/о +11.7 +4.0 59 +10 +10 1019.9 1009.8
17 15.08 СЗ 3 н/о н/о +12.0 +4.0 58 +11 +11 1019.0 1008.9
19 15.08 СЗ 4 н/о н/о +11.5 +3.0 56 +10 +10 1017.9 1007.8
20 15.08 СЗ 4 н/о н/о +12.3 +4.0 57 +11 +11 1017.7 1007.6
22 15.08 СЗ 5 н/о н/о +14.0 +3.2 48 +13 +13 1017.8 1007.7
23 15.08 СЗ 4 н/о н/о +16.2 +1.9 38 +16 +16 1017.7 1007.6
01 16.08 З 2 н/о н/о +19.1 +2.0 32 +20 +20 1017.2 1007.1
02 16.08 З 3 н/о н/о +20.1 +0.5 27 +21 +21 комфорт 1016.1 1006.0 +11.2
04 16.08 З 2 н/о н/о +19.7 +0.2 27 +20 +20 1014.8 1004.7
05 16.08 З 3 н/о н/о +20.6 +4.2 34 +22 +22 комфорт 1014.3 1004.2
07 16.08 З 2 н/о н/о +20.5 -0.7 24 +21 +21 комфорт 1014.5 1004.4
08 16.08 СЗ 4 н/о н/о +20.2 -1.0 24 +20 +20 1014.4 1004.3
10 16.08 ЮЗ 1 н/о н/о +18.4 +1.9 33 +20 +20 1015.2 1005.1
11 16.08 С 2 н/о н/о +17.3 -0.4 30 +18 +18 1014.8 1004.7
13 16.08 З 1 н/о н/о +16.5 +3.9 43 +18 +18 1015.2 1005.1
14 16.08 СЗ 4 н/о н/о +16.6 +3.7 42 +16 +16 1014.7 1004.6 +21.9
16 16.08 З 2 н/о н/о +15.0 +4.1 48 +15 +15 1014.5 1004.4
17 16.08 ЮЗ 3 н/о н/о +15.7 +10.0 69 +15 +15 1014.5 1004.4
19 16.08 Ю 7 н/о н/о +14.6 +6.4 58 +13 +13 1015.5 1005.4
20 16.08 Ю 7 н/о н/о +14.5 +6.1 57 +13 +13 1016.4 1006.3
22 16.08 ЮЗ 3 н/о н/о +13.8 +7.6 66 +13 +13 1018.9 1008.8
23 16.08 Ю 6 н/о н/о +14.6 +6.9 60 +13 +13 1019.3 1009.2
01 17.08 ЮЗ 7 н/о н/о +14.9 +7.7 62 +13 +13 1019.9 1009.8
02 17.08 ЮЗ 6 н/о н/о +15.0 +7.3 60 +13 +13 1019.7 1009.6 +13.5
04 17.08 Ю 4 н/о н/о +15.5 +7.3 58 +15 +15 1019.2 1009.1
05 17.08 Ю 4 н/о н/о +15.9 +9.3 65 +15 +15 1019.6 1009.5
07 17.08 Ю 3 н/о н/о +14.4 +9.0 70 +14 +14 1020.1 1010.0
08 17.08 Ю 2 н/о н/о +14.2 +9.2 72 +14 +14 1020.7 1010.6
10 17.08 штиль 0 н/о н/о +11.8 +8.8 82 +11 +11 1021.5 1011.4
11 17.08 В 2 н/о н/о +13.7 +9.2 74 +13 +13 1021.0 1010.9
13 17.08 СЗ 3 н/о н/о +11.3 +9.6 89 +9 +9 1021.3 1011.2
14 17.08 СЗ 2 н/о н/о +11.3 +9.6 89 +10 +10 1020.7 1010.6 +18.0
16 17.08 СЗ 2 н/о н/о +10.3 +8.7 90 +9 +9 1020.4 1010.3
17 17.08 СЗ 3 н/о н/о +9.9 +8.2 89 +8 +8 1019.4 1009.3
19 17.08 СЗ 3 н/о н/о +9.7 +7.5 86 +8 +8 1018.8 1008.7
20 17.08 С 3 н/о н/о +9.5 +7.1 85 +7 +7 1018.6 1008.5
22 17.08 С 4 н/о н/о +13.3 +7.7 69 +12 +12 1018.7 1008.6
23 17.08 С 5 н/о н/о +16.4 +9.6 64 +15 +15 1018.2 1008.1
01 18.08 С 10 н/о н/о +17.8 +9.9 60 +17 +17 1016.2 1006.1
02 18.08 С 11 н/о н/о +18.1 +10.7 62 +17 +17 1015.1 1005.0 +9.2
04 18.08 СВ 9 н/о н/о +17.7 +12.6 72 +17 +17 1012.4 1002.4
05 18.08 СВ 11 н/о н/о +18.1 +12.1 68 +17 +17 1011.4 1001.4
07 18.08 С 9 н/о н/о +16.8 +13.1 79 +15 +15 1010.4 1000.4
08 18.08 С 10 н/о н/о +16.6 +13.3 81 +15 +15 1009.3 999.3
10 18.08 С 10 н/о н/о +16.7 +14.5 87 +15 +15 1007.7 997.7
11 18.08 С 11 н/о н/о +16.7 +14.5 87 +15 +15 1006.5 996.5
13 18.08 СЗ 8 н/о н/о +17.2 +7.8 54 +16 +16 1008.3 998.3
14 18.08 З 6 н/о н/о +14.4 +6.0 57 +13 +13 1009.9 999.9 +19.3
16 18.08 З 5 н/о н/о +11.8 +4.3 60 +10 +10 1009.5 999.5
17 18.08 З 4 н/о н/о +11.6 +2.6 54 +10 +10 1008.2 998.2
19 18.08 З 6 н/о н/о +10.9 +2.7 57 +8 +8 1008.9 998.9
20 18.08 З 6 н/о н/о +10.7 +1.3 52 +8 +8 1009.6 999.6
22 18.08 СЗ 8 н/о н/о +10.4 +2.5 58 +7 +7 1011.5 1001.5
23 18.08 СЗ 7 н/о н/о +11.5 +1.2 49 +9 +9 1011.8 1001.8
01 19.08 З 5 н/о н/о +12.6 +0.7 44 +11 +11 1014.6 1004.5
02 19.08 З 4 н/о н/о +13.0 -0.3 40 +12 +12 1014.0 1003.9 +10.0
04 19.08 З 5 н/о н/о +13.5 -0.5 38 +12 +12 1014.2 1004.1
05 19.08 З 4 н/о н/о +13.2 -1.2 37 +12 +12 1014.9 1004.8
07 19.08 З 4 н/о н/о +12.4 +0.8 45 +11 +11 1016.7 1006.6
08 19.08 З 3 н/о н/о +11.8 0.0 44 +11 +11 1018.1 1008.0
10 19.08 З 3 н/о н/о +10.7 +1.0 51 +9 +9 1020.4 1010.3
11 19.08 З 3 н/о н/о +10.3 +0.3 50 +9 +9 1021.2 1011.1
13 19.08 З 3 н/о н/о +9.6 0.0 51 +8 +8 1021.6 1011.5
14 19.08 З 3 н/о н/о +9.6 0.0 51 +8 +8 1021.6 1011.5 +17.4
16 19.08 З 4 н/о н/о +9.5 +1.2 56 +7 +7 1021.4 1011.3
17 19.08 З 3 н/о н/о +9.6 +1.3 56 +8 +8 1020.9 1010.8
19 19.08 З 3 н/о н/о +9.6 +2.2 60 +8 +8 1020.5 1010.4
20 19.08 З 4 н/о н/о +9.6 +2.0 59 +7 +7 1020.9 1010.8
22 19.08 З 3 н/о н/о +10.3 +1.7 55 +9 +9 1021.3 1011.2
23 19.08 З 5 н/о н/о +11.5 +2.3 53 +9 +9 1021.0 1010.9
01 20.08 З 2 н/о н/о +14.7 +2.3 43 +15 +15 1020.9 1010.8
02 20.08 З 3 н/о н/о +16.1 +2.2 39 +16 +16 1019.8 1009.7 +9.5
04 20.08 З 4 н/о н/о +16.1 +1.8 38 +16 +16 1017.7 1007.6
05 20.08 З 4 н/о н/о +16.0 +3.1 42 +15 +15 1017.3 1007.2
07 20.08 З 4 н/о н/о +14.7 +2.3 43 +14 +14 1016.8 1006.7
08 20.08 З 5 н/о н/о +13.2 +2.7 49 +12 +12 1017.4 1007.3
10 20.08 З 4 н/о н/о +12.2 +2.6 52 +10 +10 1018.5 1008.4
11 20.08 З 3 н/о н/о +12.4 +3.9 56 +11 +11 1018.3 1008.2
13 20.08 З 4 н/о н/о +13.1 +4.0 54 +12 +12 1017.3 1007.2
14 20.08 З 3 н/о н/о +13.4 +4.3 54 +13 +13 1016.7 1006.6 +17.0
16 20.08 З 3 н/о н/о +14.0 +4.9 54 +13 +13 1015.3 1005.2
17 20.08 З 4 н/о н/о +13.9 +4.8 54 +13 +13 1014.2 1004.1
19 20.08 З 4 н/о н/о +13.6 +4.5 54 +12 +12 1013.3 1003.3
20 20.08 СЗ 5 н/о н/о +13.3 +5.2 58 +12 +12 1013.6 1003.5
22 20.08 СЗ 4 н/о н/о +14.0 +5.6 57 +13 +13 1013.7 1003.6
23 20.08 СЗ 6 н/о н/о +15.1 +5.9 54 +14 +14 1013.3 1003.3
01 21.08 З 4 н/о н/о +17.7 +5.3 44 +18 +18 1012.6 1002.6
02 21.08 З 3 н/о н/о +18.8 +4.9 40 +19 +19 1011.8 1001.8 +12.3
05 21.08 З 5 н/о н/о +18.5 +7.9 50 +18 +18 1010.9 1000.9
07 21.08 З 3 н/о н/о +18.1 +5.0 42 +18 +18 1010.8 1000.8
08 21.08 З 4 н/о н/о +16.9 +5.2 46 +16 +16 1011.6 1001.6
10 21.08 З 4 н/о н/о +15.8 +5.4 50 +15 +15 1012.2 1002.2
11 21.08 З 4 н/о н/о +15.1 +5.9 54 +14 +14 1012.0 1002.0

 

Местоположение метеостанции Перпендикуляр Пойнт (Новый Южный Уэльс, Австралия): широта -35.08 долгота 150.80 высота над уровнем моря 84 м.

В архиве по умолчанию представлена погода в Перпендикуляр Пойнт за последнюю неделю. Архивные данные за месяц целиком и за предыдущие месяцы, начиная с января 2011 года, Вы можете получить, выбрав интересующий диапазон дат из раскрывающегося списка и нажав кнопку "Ввод!".


*Определитесь, кто Вы:
робот инопланетянин человек

Внимание! Время в таблицах - всемирное. Для получения местного времени необходимо прибавить поправку, которая равна 10 ч.

Смотрите также архив погоды в соседних городах и на ближайших метеорологических станциях:

Погода в Нора Хилл (Новый Южный Уэльс, Австралия) (29 км)
Погода в Улладалле (Новый Южный Уэльс, Австралия) (42 км)
Погода в Киаме (Новый Южный Уэльс, Австралия) (48 км)
Погода в Вуллонгонге (Новый Южный Уэльс, Австралия) (57 км)
Погода в Нерриге (Новый Южный Уэльс, Австралия) (66 км)
Погода в Мосс Вейл (Новый Южный Уэльс, Австралия) (71 км)
Погода в Белламби (Новый Южный Уэльс, Австралия) (79 км)
Погода в Брейдвуде (Новый Южный Уэльс, Австралия) (100 км)
Погода в Гоулберне (Новый Южный Уэльс, Австралия) (102 км)
Погода в Моруе (Новый Южный Уэльс, Австралия) (109 км)

Пояснения к столбцам:

Ветер - указаны скорость ветра в м/с - средняя за 10 мин, порывы в срок и между сроками (в фигурных скобках) и направление, откуда дует ветер: С - северный, СВ - северо-восточный, В - восточный, ЮВ - юго-восточный, Ю - южный, ЮЗ - юго-западный, З - западный, СЗ - северо-западный.
Видимость - горизонтальная дальность видимости в метрах или километрах. При видимости от 1 до 10 км при отсутствии осадков обычно наблюдается дымка, при ухудшении видимости до 1 км и менее - туман. В сухую погоду видимость может ухудшаться дымом, пылью или мглою.
Явления - указаны атмосферные явления, наблюдавшиеся в срок или в последний час перед сроком; фигурными скобками обозначены явления, наблюдавшиеся между сроками (за 1-3 часа до срока); квадратными скобками обозначены град или гололедные отложения с указанием их диаметра в мм.
Облачность - указаны через наклонную черту общая и нижняя облачность в баллах и высота нижней границы облаков в метрах; квадратными скобками обозначены формы облаков: Ci - перистые, Cs - перисто-слоистые, Cc - перисто-кучевые, Ac - высококучевые, As - высокослоистые, Sc - слоисто-кучевые, Ns - слоисто-дождевые, Cu - кучевые, Cb - кучево-дождевые. Подробнее классификацию облаков см. в Атласе облаков (PDF).
T - Температура воздуха - температура, измеренная на высоте 2 м над землей.
Td - Температура точки росы - температура, при понижении до которой содержащийся в воздухе водяной пар достигнет насыщения.
f - Относительная влажность воздуха - влажноcть воздуха, измеренная на высоте 2 м над землей.
Te - Эффективная температура - температура, которую ощущает одетый по сезону человек в тени. Характеристика душности погоды. При расчете учитывается влияние влажности воздуха и скорости ветра на теплоощущения человека.
Tes - Эффективная температура на солнце - температура, которую ощущает человек, с поправкой на солнечный нагрев. Характеристика знойности погоды. Зависит от высоты солнца над горизонтом, облачности и скорости ветра. Ночью, в пасмурную погоду, а также при ветре 12 м/с и более поправка равна нулю.
P - Атмосферное давление - приведенное к уровню моря атмосферное давление.
Po - Атмосферное давление - измеренное на уровне метеостанции атмосферное давление.
Tmin - Минимальная температура - минимум температуры воздуха на высоте 2 м над землей.
Tmax - Максимальная температура - максимум температуры воздуха на высоте 2 м над землей.
R - Количество осадков - Количество выпавших осадков за период времени, мм. При наведении курсора мыши на число - период времени, за который выпало указанное количество осадков.
R24 - Количество осадков - Количество выпавших осадков за 24 часа, мм.
S - Снежный покров - Высота снежного покрова, см. При наведении курсора мыши на число - состояние снежного покрова и степень покрытия местности в баллах.